Weather in Turan

Russia / Tyva Republic     52°08′34″N   93°55′23″E
temp.,
°C
wind,
m/s
gust,
m/s
humid.,
%
clouds,
%
prec.,
mm/h
press.,
hPa
HPBL,
m
8 march, mon
mon801:00−11e0185100 0.0 102621
04:00−13ne118293 0.0 102621
07:00−14ne118346 0.0 102820
10:00−8sse118611 0.0 1026173
13:00−4sse12847 0.0 1022343
16:00−3s12800 0.0 1019332
19:00−10e11900 0.0 102121
22:00−13ene11863 0.0 102221
9 march, tue
tue901:00−10e118749 0.0 102221
04:00−10e1289100 0.0 102221
07:00−12sw1192100 0.0 102521
10:00−7s1190100 0.0 1025201
13:00−4s2289100 0.0 1025329
16:00−3sse128682 0.0 1025332
19:00−9ese119382 0.2 102821
22:00−11ne11880 0.0 102921
10 march, wed
wed1001:00−12ne12850 0.0 102921
04:00−13ne128410 0.0 102821
07:00−14n118540 0.0 102821
10:00−8sw11860 0.0 1025139
13:00−5ssw22908 0.0 1023293
16:00−3s128830 0.0 1022326
19:00−10ese119625 0.0 102421
22:00−12ene12900 0.0 102521
11 march, thu
thu1101:00−13ne12860 0.0 102421
04:00−14ene11890 0.0 102321
07:00−15ne11910 0.0 102320
10:00−8sse118863 0.0 1021164
13:00−4sse228479 0.0 1019335
16:00−3s128099 0.0 1017324
19:00−9ene118799 0.0 101621
22:00−7ene1288100 0.1 101724
12 march, fri
fri1201:00−6nw1188100 0.1 101931
04:00−7wsw1196100 0.6 102323
07:00−10n229194 0.6 102621
10:00−6sse119021 0.0 1025187
13:00−3sse248854 0.0 1021539
16:00−2se238710 0.0 1018441
19:00−9ese11957 0.0 101721
22:00−10nne119276 0.0 101821